Location: Proctor
(47.8934°N, 114.3048°W)
Time: 20:27:18
(UTC+00:00)

CAS-6 - Pass Details

Date: 28 June 2022
Orbit: 613 x 634 km, 97.9° (Epoch: 11 August)

Event Time Altitude Azimuth Distance (km) Brightness Sun altitude
Exits shadow 06:07:59 24° 189° (S) 1,312 ? -15.9°
Maximum altitude 06:10:28 56° 259° (W) 747 ? -16.0°
Drops below altitude 10° 06:14:47 10° 339° (NNW) 2,008 ? -16.3°
Sets 06:17:01 0° 343° (NNW) 2,916 ? -16.4°
